Total_Precipitation_Accumulation
1.34 1.45 1.63 1.80 1.88 1.91 2.04 2.14 2.41 2.80 3.00 2.97 2.96 2.92 2.60 2.30 1.98 1.76 1.77 1.85 1.89 2.04 2.28 2.02 2.28 2.41 2.36 2.38 2.38 2.47 2.31 2.11 2.24 2.03 1.53 1.08 0.81 0.68 0.61 0.63 0.66 0.61 0.66
1.50 1.65 1.81 1.92 1.88 2.00 2.24 2.52 2.82 3.12 3.02 3.15 3.36 3.29 3.04 2.45 2.09 1.89 1.86 1.92 1.96 2.02 2.15 2.39 2.44 2.51 2.48 2.47 2.41 2.41 2.19 1.93 2.14 2.07 1.79 1.25 0.91 0.70 0.59 0.67 0.64 0.66 0.73
1.25 1.38 1.47 1.59 1.85 2.19 2.55 2.80 2.99 3.05 2.99 3.14 3.27 2.98 2.74 2.31 2.17 2.15 2.04 1.98 2.08 2.13 2.25 2.41 2.49 2.41 2.32 2.32 2.40 2.30 2.13 1.91 1.91 2.03 1.95 1.51 1.09 0.79 0.61 0.65 0.69 0.85 0.88
1.11 1.21 1.33 1.57 1.94 2.27 2.63 2.96 2.95 2.92 2.87 2.99 3.05 2.88 2.60 2.32 2.21 2.23 2.03 1.88 1.86 1.91 2.01 2.08 2.24 2.29 2.28 2.22 2.17 2.12 2.10 1.97 1.79 1.91 1.91 1.76 1.50 1.23 0.81 0.61 0.61 0.76 0.82
1.03 1.15 1.29 1.50 1.70 2.02 2.32 2.59 2.77 2.81 2.75 2.71 2.67 2.64 2.44 2.19 2.06 2.00 1.87 1.83 1.85 1.77 1.77 1.86 2.04 2.09 2.02 1.99 2.11 2.24 2.18 1.99 1.79 1.79 1.79 1.86 1.80 1.55 1.21 0.82 0.72 0.70 0.64
1.20 1.24 1.43 1.56 1.64 1.83 2.10 2.26 2.39 2.44 2.40 2.32 2.27 2.29 2.22 2.17 2.02 1.87 1.88 1.91 1.85 1.72 1.66 1.68 1.78 1.84 1.82 1.78 1.81 1.90 1.92 1.87 1.89 1.85 1.78 1.75 1.70 1.63 1.55 1.20 0.97 0.82 0.58
1.29 1.37 1.53 1.63 1.69 1.72 1.77 1.83 1.87 1.92 1.86 1.78 1.73 1.77 1.79 1.80 1.73 1.71 1.78 1.83 1.75 1.67 1.63 1.57 1.52 1.51 1.53 1.61 1.74 1.74 1.75 1.81 1.88 1.85 1.83 1.70 1.58 1.61 1.58 1.41 1.15 0.97 0.68
1.16 1.27 1.35 1.27 1.21 1.23 1.28 1.31 1.32 1.33 1.30 1.33 1.36 1.39 1.49 1.53 1.52 1.63 1.64 1.69 1.67 1.62 1.51 1.38 1.33 1.31 1.33 1.41 1.56 1.71 1.72 1.78 1.81 1.76 1.73 1.59 1.49 1.55 1.49 1.44 1.42 1.25 1.08
0.81 0.84 0.86 0.89 0.95 0.97 0.97 0.97 1.01 1.02 0.97 0.96 1.06 1.13 1.20 1.27 1.29 1.39 1.42 1.41 1.40 1.34 1.30 1.27 1.25 1.21 1.23 1.26 1.29 1.41 1.42 1.49 1.54 1.62 1.55 1.41 1.38 1.43 1.43 1.49 1.53 1.44 1.30
0.62 0.59 0.59 0.63 0.67 0.70 0.75 0.79 0.88 0.97 0.95 0.88 0.88 0.90 0.95 0.99 1.09 1.16 1.18 1.21 1.25 1.22 1.16 1.17 1.17 1.11 1.08 1.09 1.11 1.15 1.21 1.18 1.22 1.40 1.40 1.34 1.34 1.39 1.37 1.40 1.51 1.59 1.57
0.38 0.33 0.34 0.38 0.46 0.59 0.67 0.69 0.80 0.88 0.84 0.74 0.73 0.77 0.79 0.83 0.88 0.95 0.96 1.02 1.08 1.15 1.16 1.12 1.08 0.99 0.92 0.90 0.91 0.93 1.02 1.03 1.02 1.10 1.12 1.13 1.21 1.30 1.31 1.31 1.35 1.54 1.70
0.23 0.21 0.21 0.25 0.33 0.42 0.47 0.55 0.64 0.74 0.76 0.72 0.72 0.75 0.78 0.78 0.78 0.80 0.79 0.81 0.86 0.89 0.91 0.91 0.97 1.00 0.98 0.93 0.91 0.87 0.85 0.90 0.91 0.97 1.06 1.09 1.18 1.24 1.19 1.24 1.31 1.48 1.67
0.17 0.16 0.17 0.21 0.24 0.29 0.36 0.43 0.48 0.56 0.64 0.66 0.71 0.77 0.76 0.74 0.77 0.80 0.80 0.79 0.78 0.80 0.79 0.81 0.83 0.85 0.93 1.03 1.04 1.01 1.00 1.02 0.93 0.97 1.05 1.04 1.05 1.07 1.07 1.15 1.26 1.40 1.54
0.16 0.14 0.15 0.16 0.16 0.19 0.26 0.31 0.34 0.41 0.49 0.57 0.72 0.84 0.89 0.90 0.90 0.85 0.86 0.84 0.80 0.81 0.79 0.75 0.75 0.78 0.79 0.86 0.99 1.04 1.02 0.98 0.91 0.90 0.89 0.86 0.85 0.88 0.92 0.97 1.10 1.22 1.32
0.15 0.12 0.11 0.10 0.11 0.14 0.17 0.25 0.32 0.37 0.43 0.58 0.79 0.90 0.88 0.83 0.82 0.81 0.88 0.85 0.77 0.75 0.79 0.72 0.68 0.73 0.77 0.76 0.77 0.87 0.90 0.87 0.83 0.84 0.76 0.64 0.66 0.70 0.69 0.73 0.89 1.01 1.10
0.13 0.11 0.10 0.09 0.08 0.08 0.10 0.17 0.27 0.34 0.43 0.55 0.66 0.70 0.74 0.77 0.73 0.68 0.67 0.69 0.71 0.71 0.71 0.65 0.63 0.63 0.58 0.62 0.58 0.60 0.67 0.69 0.67 0.69 0.69 0.61 0.53 0.51 0.53 0.53 0.60 0.70 0.81
0.09 0.08 0.08 0.08 0.07 0.07 0.10 0.16 0.23 0.28 0.40 0.48 0.52 0.60 0.71 0.74 0.67 0.58 0.61 0.68 0.69 0.68 0.66 0.60 0.56 0.54 0.52 0.46 0.40 0.40 0.49 0.55 0.54 0.55 0.57 0.51 0.46 0.43 0.38 0.44 0.52 0.53 0.57
0.06 0.06 0.06 0.06 0.05 0.07 0.11 0.16 0.22 0.28 0.38 0.49 0.56 0.62 0.72 0.73 0.69 0.66 0.65 0.65 0.65 0.65 0.65 0.60 0.56 0.57 0.54 0.46 0.38 0.34 0.33 0.43 0.49 0.48 0.48 0.47 0.47 0.42 0.39 0.39 0.45 0.43 0.42
0.04 0.04 0.04 0.05 0.08 0.11 0.13 0.18 0.26 0.31 0.39 0.50 0.61 0.71 0.80 0.79 0.74 0.72 0.69 0.67 0.65 0.60 0.59 0.61 0.62 0.60 0.55 0.44 0.36 0.34 0.37 0.43 0.44 0.45 0.44 0.43 0.44 0.44 0.40 0.37 0.40 0.40 0.40
0.08 0.08 0.07 0.10 0.16 0.17 0.18 0.25 0.32 0.40 0.51 0.60 0.69 0.75 0.80 0.83 0.80 0.79 0.76 0.71 0.70 0.63 0.58 0.60 0.63 0.60 0.61 0.47 0.31 0.28 0.36 0.47 0.49 0.54 0.53 0.43 0.37 0.37 0.30 0.30 0.34 0.34 0.34
0.08 0.12 0.16 0.23 0.25 0.23 0.28 0.36 0.41 0.49 0.55 0.64 0.72 0.80 0.88 0.86 0.82 0.84 0.86 0.83 0.80 0.78 0.71 0.64 0.63 0.63 0.60 0.49 0.31 0.26 0.35 0.48 0.56 0.57 0.57 0.51 0.40 0.30 0.26 0.25 0.26 0.30 0.29
0.08 0.15 0.26 0.31 0.29 0.32 0.46 0.54 0.56 0.55 0.58 0.68 0.77 0.88 0.95 0.80 0.75 0.90 0.92 0.91 0.92 0.92 0.87 0.81 0.72 0.68 0.63 0.48 0.34 0.27 0.31 0.43 0.57 0.65 0.61 0.51 0.40 0.33 0.30 0.26 0.26 0.27 0.26
0.11 0.14 0.23 0.29 0.32 0.42 0.59 0.75 0.76 0.68 0.69 0.77 0.87 0.91 0.93 0.97 0.99 0.97 0.97 0.99 0.97 0.99 0.97 0.95 0.88 0.82 0.79 0.67 0.44 0.34 0.32 0.39 0.50 0.57 0.63 0.56 0.38 0.33 0.34 0.34 0.29 0.24 0.24
0.12 0.14 0.20 0.29 0.39 0.48 0.64 0.78 0.81 0.80 0.83 0.88 0.93 0.97 1.00 1.02 1.07 1.13 1.11 1.07 1.02 1.04 1.05 0.99 0.96 0.95 0.93 0.84 0.68 0.55 0.45 0.45 0.46 0.50 0.54 0.57 0.49 0.38 0.39 0.43 0.35 0.27 0.27
0.10 0.14 0.23 0.35 0.42 0.49 0.60 0.69 0.74 0.85 0.95 0.98 1.01 1.04 1.07 1.10 1.13 1.15 1.10 1.03 0.99 0.89 0.93 0.95 0.93 0.95 0.94 0.83 0.72 0.69 0.66 0.61 0.57 0.55 0.61 0.60 0.62 0.52 0.47 0.48 0.44 0.39 0.37
0.12 0.17 0.24 0.32 0.38 0.46 0.56 0.65 0.77 0.91 1.06 1.09 1.03 1.02 1.01 1.05 1.10 1.10 0.95 0.74 0.66 0.60 0.57 0.61 0.65 0.66 0.62 0.55 0.52 0.55 0.56 0.57 0.59 0.57 0.66 0.71 0.70 0.65 0.61 0.58 0.54 0.53 0.47